Regional Weather Roundup
Issued by NWS

Home | Current Version | Previous Version | Text Only | Print | Product List | Glossary On
Versions: 1 2 3 4 5 6 7 8 9 10 11 12 13 14 15 16 17 18 19 20 21 22 23 24 25 26 27 28 29 30 31 32 33 34 35 36 37 38 39 40 41 42 43 44 45 46 47 48 49 50
000
ASUS45 KTFX 271110
RWRMT
MONTANA REGIONAL WEATHER ROUNDUP
NATIONAL WEATHER SERVICE GREAT FALLS MT
500 AM MDT TUE JUN 27 2017

NOTE: "FAIR" INDICATES FEW OR NO CLOUDS BELOW 12000 FEET WITH NO
SIGNIFICANT WEATHER AND/OR OBSTRUCTIONS TO VISIBILITY.

MTZ001>007-043-271200-
WEST OF THE DIVIDE

CITY           SKY/WX    TMP DP  RH WIND       PRES   REMARKS
KALISPELL      CLOUDY    58  58 100 CALM      29.80R
MISSOULA       CLOUDY    63  54  72 VRB6      29.87R
BUTTE          CLOUDY    53  49  86 CALM      29.96S
MULLAN PASS    CLOUDY    52  45  77 SW7       29.96S
ANACONDA         N/A     54  48  82 SE5       29.93R
DEER LODGE       N/A     55  52  88 CALM      29.93R
EUREKA           N/A     63  54  72 CALM      29.75R
HAMILTON         N/A     59  54  82 S12G17    29.88F
$$

MTZ008-052>055-271200-
SOUTHWEST MONTANA

CITY           SKY/WX    TMP DP  RH WIND       PRES   REMARKS
BOZEMAN        CLOUDY    55  52  89 SE6       29.87F
DILLON         CLOUDY    58  47  66 S10       29.93F
W YELLOWSTONE  CLOUDY    55  45  67 CALM      30.02F
ENNIS          CLEAR     57  48  72 SE10      29.97F
THREE FORKS      N/A     57  54  90 CALM      29.89F
$$

MTZ009-010-012-014-046-048-049-054-271200-
EAST SLOPES AND CENTRAL MONTANA

CITY           SKY/WX    TMP DP  RH WIND       PRES   REMARKS
CUT BANK       CLOUDY    61  49  64 W14       29.72R
GREAT FALLS    MOCLDY    65  50  58 SW14      29.76R
MALMSTROM AFB  CLOUDY    64  52  66 SW12      29.76R
HELENA         PTCLDY    61  54  77 W5        29.84R
CHOTEAU          N/A     66  45  45 S8        29.77F
$$

MTZ011-013-016-021-045-047-050-051-271200-
NORTH CENTRAL MONTANA

CITY           SKY/WX    TMP DP  RH WIND       PRES   REMARKS
HAVRE          CLOUDY    63  52  67 W5        29.65S
LEWISTOWN      MOCLDY    61  47  59 S7        29.76F
N BAR RANCH      N/A     72  41  33 NW9       29.78S
CHINOOK          N/A     59  54  82 CALM      29.63F
FORT BENTON      N/A    N/A N/A N/A MISG      29.70F
$$

MTZ017>020-022>027-061-062-271200-
NORTHEAST MONTANA

CITY           SKY/WX    TMP DP  RH WIND       PRES   REMARKS
GLASGOW        CLOUDY    63  39  41 SE8       29.61S
JORDAN           N/A     58  46  64 NW7       29.65R
SIDNEY         CLOUDY    64  42  44 SE10      29.67F
WOLF POINT     CLOUDY    66  40  38 NE6       29.62F
MALTA          CLEAR     55  48  76 W7        29.61F
PLENTYWOOD       N/A     63  43  48 SE10      29.65F
POPLAR           N/A     66  43  42 E9        29.63F
$$

MTZ028>42-056>058-271200-
SOUTHCENTRAL AND SOUTHEAST MONTANA

CITY           SKY/WX    TMP DP  RH WIND       PRES   REMARKS
BAKER          PTCLDY    57  38  48 SE14      29.74F
BILLINGS       CLOUDY    72  44  36 NW8       29.75F
LIVINGSTON     CLEAR     61  49  64 W7        29.85F
MILES CITY     PTCLDY    67  40  37 S14       29.63F
BIG TIMBER     CLEAR     64  46  52 W17G24    29.85F
ROUNDUP          N/A     73  42  32 S10       29.67R
$$

REGIONAL REPORTS...DAKOTAS

CITY           SKY/WX    TMP DP  RH WIND       PRES   REMARKS
WILLISTON      CLOUDY    67  42  40 S10       29.70F
MINOT          CLOUDY    63  37  38 S21G31    29.78F
DICKINSON      PTCLDY    57  35  43 S20       29.76S
BEACH            N/A     55  37  50 SE16      29.75F
CROSBY           N/A     61  43  51 S21       29.67F
TIOGA            N/A     61  39  44 S20G26    29.73F
WATFORD CITY     N/A     63  39  42 S14       29.71F
BISMARCK       CLOUDY    57  40  52 SE13      29.86F
GRAND FORKS    CLOUDY    51  45  79 S7        29.94S
FARGO          CLEAR     52  42  69 S9        29.99S
BUFFALO SD       N/A     57  40  52 SE13      29.69F
RAPID CITY     PTCLDY    61  45  55 S16       29.84F
$$

REGIONAL REPORTS...WYOMING/IDAHO/WASHINGTON

CITY           SKY/WX    TMP DP  RH WIND       PRES   REMARKS
GILLETTE       CLOUDY    61  49  64 SE3       29.81F
SHERIDAN       CLOUDY    52  46  80 S7        29.79R
BUFFALO WY     CLOUDY    61  38  42 N10G28    29.85R
CODY           CLOUDY    68  40  35 CALM      29.89R
YELLOWSTONE LA   N/A     53  44  71 CALM      30.16R
IDAHO FALLS    CLOUDY    68  49  50 SE6       29.90F
SALMON         CLOUDY   N/A N/A N/A S10G16    29.99R
BOISE          PTCLDY    63  50  62 S5        29.87F
SPOKANE        MOCLDY    61  55  81 S15       29.81R
$$

REGIONAL REPORTS...ALBERTA

CITY           SKY/WX    TMP DP  RH WIND       PRES   REMARKS
EDMONTON       CLEAR     55  48  76 NW8       29.62F
CALGARY        MOCLDY    55  43  62 N18G29    29.73R
LETHBRIDGE     MOCLDY    64  48  55 SW10      29.65R
MEDICINE HAT   PTCLDY    63  50  63 SW10      29.57F
WATERTON GATE    N/A     64  46  52 SW13G21     N/A
MILK RIVER       N/A     66  50  55 W15G21      N/A
ONEFOUR          N/A     63  46  55 N7          N/A
$$

REGIONAL REPORTS...SASKATCHEWAN

CITY           SKY/WX    TMP DP  RH WIND       PRES   REMARKS
SWIFT CURRENT  CLEAR     61  48  63 SW13      29.56S
REGINA         PTCLDY    57  45  62 SE15G21   29.61F
SASKATOON      MOCLDY    61  45  55 S10       29.47F
CYPRESS HILLS    N/A     64  41  42 W7          N/A
VAL MARIE        N/A     61  43  51 SW8         N/A
ROCKGLEN         N/A     63  41  45 S14         N/A
ASSINIBOIA       N/A     57  54  88 NW18G24     N/A
$$



USA.gov is the U.S. government's official web portal to all federal, state and local government web resources and services.